| time (UTC) | temp F | wind direction | speed knots | gust knots | rain 1hr in | rain 24hr in | rain mn in | humidity % | barometer mb |
| 20260503220521 | 74 | 86 | 4.3 | 6.1 | 0.00 | 0.00 | 0.00 | 49 | 1019.1 |
| 20260503220017 | 73 | 90 | 0.9 | 6.1 | 0.00 | 0.00 | 0.00 | 51 | 1018.9 |
| 20260503215515 | 74 | 87 | 2.6 | 4.3 | 0.00 | 0.00 | 0.00 | 51 | 1019.1 |
| 20260503215012 | 76 | 62 | 2.6 | 4.3 | 0.00 | 0.00 | 0.00 | 47 | 1019.0 |
| 20260503214510 | 75 | 147 | 2.6 | 6.1 | 0.00 | 0.00 | 0.00 | 48 | 1019.2 |
| 20260503214006 | 76 | 75 | 3.5 | 5.2 | 0.00 | 0.00 | 0.00 | 47 | 1018.9 |
| 20260503213505 | 76 | 86 | 2.6 | 4.3 | 0.00 | 0.00 | 0.00 | 49 | 1019.1 |
| 20260503213001 | 75 | 79 | 4.3 | 6.1 | 0.00 | 0.00 | 0.00 | 46 | 1019.0 |
| 20260503212458 | 74 | 76 | 2.6 | 6.1 | 0.00 | 0.00 | 0.00 | 50 | 1019.1 |
| 20260503211956 | 75 | 69 | 4.3 | 5.2 | 0.00 | 0.00 | 0.00 | 47 | 1018.9 |
| 20260503211453 | 75 | 73 | 3.5 | 6.1 | 0.00 | 0.00 | 0.00 | 48 | 1019.0 |
| 20260503210948 | 77 | 105 | 2.6 | 3.5 | 0.00 | 0.00 | 0.00 | 48 | 1018.9 |
| 20260503210445 | 76 | 83 | 2.6 | 7.0 | 0.00 | 0.00 | 0.00 | 46 | 1019.1 |
| 20260503205940 | 75 | 66 | 3.5 | 7.0 | 0.00 | 0.00 | 0.00 | 47 | 1018.9 |
| 20260503205437 | 77 | 90 | 2.6 | 4.3 | 0.00 | 0.00 | 0.00 | 47 | 1019.1 |
| 20260503204933 | 77 | 67 | 2.6 | 6.1 | 0.00 | 0.00 | 0.00 | 46 | 1019.3 |
| 20260503204430 | 77 | 117 | 2.6 | 4.3 | 0.00 | 0.00 | 0.00 | 47 | 1019.1 |
| 20260503203927 | 75 | 87 | 2.6 | 6.1 | 0.00 | 0.00 | 0.00 | 50 | 1019.3 |
| 20260503203425 | 75 | 71 | 4.3 | 6.1 | 0.00 | 0.00 | 0.00 | 47 | 1019.1 |
| 20260503202921 | 75 | 109 | 2.6 | 6.1 | 0.00 | 0.00 | 0.00 | 49 | 1019.3 |
| 20260503202420 | 76 | 178 | 2.6 | 7.0 | 0.00 | 0.00 | 0.00 | 47 | 1019.2 |
| 20260503201918 | 75 | 79 | 2.6 | 6.1 | 0.00 | 0.00 | 0.00 | 50 | 1019.4 |
| 20260503201415 | 75 | 111 | 2.6 | 4.3 | 0.00 | 0.00 | 0.00 | 49 | 1019.4 |
| 20260503200912 | 74 | 161 | 4.3 | 6.1 | 0.00 | 0.00 | 0.00 | 50 | 1019.4 |
| 20260503200408 | 74 | 90 | 5.2 | 7.0 | 0.00 | 0.00 | 0.00 | 50 | 1019.4 |
| 20260503195905 | 77 | 163 | 2.6 | 6.1 | 0.00 | 0.00 | 0.00 | 50 | 1019.6 |
| 20260503195402 | 75 | 67 | 4.3 | 6.1 | 0.00 | 0.00 | 0.00 | 49 | 1019.6 |
| 20260503194859 | 77 | 53 | 0.0 | 3.5 | 0.00 | 0.00 | 0.00 | 48 | 1019.8 |
| 20260503194355 | 74 | 70 | 4.3 | 7.0 | 0.00 | 0.00 | 0.00 | 51 | 1019.7 |
| 20260503193851 | 75 | 94 | 0.0 | 5.2 | 0.00 | 0.00 | 0.00 | 51 | 1019.9 |
| 20260503193347 | 74 | 75 | 3.5 | 6.1 | 0.00 | 0.00 | 0.00 | 49 | 1019.8 |
| 20260503192843 | 75 | 93 | 2.6 | 7.0 | 0.00 | 0.00 | 0.00 | 51 | 1020.1 |
| 20260503192339 | 75 | 132 | 3.5 | 5.2 | 0.00 | 0.00 | 0.00 | 49 | 1020.3 |
| 20260503191835 | 74 | 101 | 5.2 | 5.2 | 0.00 | 0.00 | 0.00 | 51 | 1020.1 |
| 20260503191332 | 76 | 135 | 3.5 | 4.3 | 0.00 | 0.00 | 0.00 | 50 | 1020.3 |
| 20260503190829 | 75 | 62 | 5.2 | 6.1 | 0.00 | 0.00 | 0.00 | 51 | 1020.2 |
| 20260503190326 | 75 | 53 | 0.0 | 5.2 | 0.00 | 0.00 | 0.00 | 51 | 1020.3 |
| 20260503185823 | 74 | 86 | 2.6 | 7.0 | 0.00 | 0.00 | 0.00 | 52 | 1020.6 |
| 20260503185319 | 74 | 90 | 0.0 | 6.1 | 0.00 | 0.00 | 0.00 | 52 | 1020.8 |
| 20260503184814 | 73 | 50 | 7.0 | 10.4 | 0.00 | 0.00 | 0.00 | 52 | 1020.5 |
| 20260503184310 | 75 | 127 | 2.6 | 7.8 | 0.00 | 0.00 | 0.00 | 51 | 1020.7 |
| 20260503183806 | 75 | 90 | 3.5 | 6.1 | 0.00 | 0.00 | 0.00 | 54 | 1020.6 |
| 20260503183303 | 75 | 83 | 2.6 | 6.1 | 0.00 | 0.00 | 0.00 | 51 | 1020.7 |
| 20260503182801 | 77 | 73 | 4.3 | 4.3 | 0.00 | 0.00 | 0.00 | 51 | 1020.6 |
| 20260503182300 | 74 | 110 | 1.7 | 7.8 | 0.00 | 0.00 | 0.00 | 54 | 1020.7 |
| 20260503181756 | 73 | 86 | 2.6 | 5.2 | 0.00 | 0.00 | 0.00 | 56 | 1020.7 |
| 20260503181253 | 74 | 62 | 3.5 | 6.1 | 0.00 | 0.00 | 0.00 | 50 | 1020.7 |
| 20260503180749 | 74 | 86 | 1.7 | 6.1 | 0.00 | 0.00 | 0.00 | 53 | 1020.8 |
| 20260503180248 | 75 | 69 | 5.2 | 7.8 | 0.00 | 0.00 | 0.00 | 52 | 1020.8 |
| 20260503175744 | 74 | 64 | 3.5 | 4.3 | 0.00 | 0.00 | 0.00 | 55 | 1020.9 |
| 20260503175242 | 75 | 75 | 4.3 | 7.8 | 0.00 | 0.00 | 0.00 | 54 | 1020.8 |
| 20260503174738 | 74 | 77 | 4.3 | 7.0 | 0.00 | 0.00 | 0.00 | 53 | 1021.1 |
| 20260503174236 | 74 | 90 | 3.5 | 7.8 | 0.00 | 0.00 | 0.00 | 52 | 1021.0 |
| 20260503173736 | 75 | 97 | 3.5 | 4.3 | 0.00 | 0.00 | 0.00 | 54 | 1021.1 |
| 20260503173232 | 74 | 115 | 1.7 | 6.1 | 0.00 | 0.00 | 0.00 | 53 | 1021.1 |
| 20260503172729 | 74 | 71 | 3.5 | 5.2 | 0.00 | 0.00 | 0.00 | 53 | 1021.2 |
| 20260503172227 | 73 | 70 | 0.0 | 4.3 | 0.00 | 0.00 | 0.00 | 54 | 1021.2 |
| 20260503171723 | 73 | 69 | 4.3 | 7.0 | 0.00 | 0.00 | 0.00 | 53 | 1021.3 |
| 20260503171220 | 74 | 98 | 4.3 | 6.1 | 0.00 | 0.00 | 0.00 | 56 | 1021.1 |
| 20260503170717 | 73 | 66 | 2.6 | 4.3 | 0.00 | 0.00 | 0.00 | 53 | 1021.2 |
| 20260503170214 | 72 | 60 | 2.6 | 5.2 | 0.00 | 0.00 | 0.00 | 54 | 1021.4 |
| 20260503160136 | 71 | 55 | 6.1 | 6.1 | 0.00 | 0.00 | 0.00 | 60 | 1021.7 |
| 20260503150606 | 67 | 57 | 1.7 | 5.2 | 0.00 | 0.00 | 0.00 | 72 | 1021.4 |
| 20260503130955 | 61 | 69 | 0.9 | 4.3 | 0.00 | 0.00 | 0.00 | 86 | 1020.6 |
| 20260503130453 | 60 | 75 | 1.7 | 4.3 | 0.00 | 0.00 | 0.00 | 87 | 1020.5 |
| 20260503110344 | 56 | 41 | 1.7 | 1.7 | 0.00 | 0.00 | 0.00 | 94 | 1019.6 |
| 20260503090235 | 56 | 63 | 0.9 | 1.7 | 0.00 | 0.00 | 0.00 | 93 | 1018.4 |
| 20260503081202 | 57 | 4 | 0.0 | 1.7 | 0.00 | 0.00 | 0.00 | 93 | 1018.2 |
| 20260503080658 | 58 | 40 | 1.7 | 1.7 | 0.00 | 0.00 | 0.00 | 93 | 1018.4 |
| 20260503080155 | 57 | 353 | 0.9 | 1.7 | 0.00 | 0.00 | 0.00 | 93 | 1018.3 |
| 20260503072632 | 58 | 23 | 0.9 | 4.3 | 0.00 | 0.00 | 0.00 | 93 | 1017.9 |
| 20260503072129 | 58 | 279 | 2.6 | 4.3 | 0.00 | 0.00 | 0.00 | 93 | 1018.1 |
| 20260503071625 | 58 | 0 | 1.7 | 4.3 | 0.00 | 0.00 | 0.00 | 93 | 1018.1 |
| 20260503071122 | 59 | 40 | 0.0 | 3.5 | 0.00 | 0.00 | 0.00 | 93 | 1018.3 |
| 20260503070619 | 58 | 0 | 1.7 | 3.5 | 0.00 | 0.00 | 0.00 | 93 | 1018.1 |
| 20260503070118 | 58 | 55 | 1.7 | 2.6 | 0.00 | 0.00 | 0.00 | 93 | 1018.2 |
| 20260503055038 | 59 | 60 | 0.0 | 2.6 | 0.00 | 0.00 | 0.00 | 92 | 1017.7 |
| 20260503054533 | 59 | 8 | 0.0 | 1.7 | 0.00 | 0.00 | 0.00 | 92 | 1017.6 |
| 20260503054031 | 59 | 32 | 0.0 | 2.6 | 0.00 | 0.00 | 0.00 | 92 | 1017.4 |
| 20260503053529 | 59 | 51 | 1.7 | 2.6 | 0.00 | 0.00 | 0.00 | 92 | 1017.5 |
| 20260503053027 | 59 | 49 | 0.0 | 2.6 | 0.00 | 0.00 | 0.00 | 92 | 1017.6 |
| 20260503052523 | 59 | 0 | 1.7 | 2.6 | 0.00 | 0.00 | 0.00 | 92 | 1017.5 |
| 20260503052019 | 59 | 40 | 0.0 | 1.7 | 0.00 | 0.00 | 0.00 | 92 | 1017.4 |
| 20260503051515 | 59 | 15 | 0.0 | 1.7 | 0.00 | 0.00 | 0.00 | 92 | 1017.7 |
| 20260503051013 | 59 | 40 | 2.6 | 2.6 | 0.00 | 0.00 | 0.00 | 92 | 1017.4 |
| 20260503050508 | 59 | 66 | 0.0 | 2.6 | 0.00 | 0.00 | 0.00 | 91 | 1017.3 |
| 20260503050006 | 59 | 74 | 0.9 | 1.7 | 0.00 | 0.00 | 0.00 | 91 | 1017.5 |
| 20260503045503 | 59 | 49 | 0.0 | 1.7 | 0.00 | 0.00 | 0.00 | 91 | 1017.3 |
| 20260503045000 | 60 | 0 | 1.7 | 3.5 | 0.00 | 0.00 | 0.00 | 91 | 1017.6 |
| 20260503044457 | 60 | 53 | 1.7 | 2.6 | 0.00 | 0.00 | 0.00 | 91 | 1017.4 |
| 20260503043954 | 60 | 75 | 0.9 | 1.7 | 0.00 | 0.00 | 0.00 | 91 | 1017.3 |
| 20260503043450 | 60 | 35 | 0.9 | 1.7 | 0.00 | 0.00 | 0.00 | 91 | 1017.3 |
| 20260503042947 | 60 | 60 | 0.9 | 2.6 | 0.00 | 0.00 | 0.00 | 91 | 1017.4 |
| 20260503042444 | 60 | 319 | 0.0 | 1.7 | 0.00 | 0.00 | 0.00 | 91 | 1017.1 |
| 20260503041941 | 60 | 49 | 1.7 | 2.6 | 0.00 | 0.00 | 0.00 | 91 | 1016.9 |
| 20260503041437 | 60 | 50 | 1.7 | 2.6 | 0.00 | 0.00 | 0.00 | 91 | 1017.0 |
| 20260503040935 | 60 | 32 | 1.7 | 2.6 | 0.00 | 0.00 | 0.00 | 91 | 1017.0 |
| 20260503040432 | 60 | 67 | 1.7 | 2.6 | 0.00 | 0.00 | 0.00 | 91 | 1016.9 |
| 20260503035929 | 60 | 0 | 0.0 | 1.7 | 0.00 | 0.29 | 0.29 | 91 | 1016.7 |
| 20260503035426 | 60 | 0 | 0.0 | 1.7 | 0.00 | 0.29 | 0.29 | 91 | 1016.8 |
| 20260503034923 | 60 | 84 | 0.9 | 1.7 | 0.00 | 0.29 | 0.29 | 91 | 1016.8 |
| 20260503034421 | 60 | 294 | 1.7 | 2.6 | 0.00 | 0.29 | 0.29 | 91 | 1016.5 |
| 20260503033918 | 60 | 315 | 3.5 | 4.3 | 0.00 | 0.29 | 0.29 | 91 | 1016.6 |
| 20260503033415 | 60 | 8 | 0.0 | 1.7 | 0.00 | 0.29 | 0.29 | 91 | 1016.4 |
| 20260503032913 | 60 | 341 | 2.6 | 2.6 | 0.00 | 0.29 | 0.29 | 90 | 1016.7 |
| 20260503032412 | 60 | 328 | 1.7 | 4.3 | 0.00 | 0.29 | 0.29 | 90 | 1016.6 |
| 20260503031909 | 61 | 32 | 1.7 | 2.6 | 0.00 | 0.29 | 0.29 | 90 | 1016.6 |
| 20260503031406 | 61 | 60 | 0.0 | 2.6 | 0.00 | 0.29 | 0.29 | 90 | 1016.4 |
| 20260503030903 | 61 | 79 | 0.0 | 2.6 | 0.00 | 0.29 | 0.29 | 90 | 1016.3 |
| 20260503030359 | 61 | 0 | 0.0 | 2.6 | 0.00 | 0.29 | 0.29 | 90 | 1016.1 |
| 20260503025855 | 61 | 52 | 0.0 | 1.7 | 0.00 | 0.29 | 0.29 | 90 | 1016.0 |
| 20260503025353 | 61 | 0 | 2.6 | 2.6 | 0.00 | 0.29 | 0.29 | 90 | 1016.1 |
| 20260503024850 | 61 | 52 | 1.7 | 3.5 | 0.00 | 0.29 | 0.29 | 90 | 1016.0 |
| 20260503024347 | 61 | 285 | 2.6 | 2.6 | 0.00 | 0.29 | 0.29 | 89 | 1016.3 |
| 20260503023844 | 61 | 29 | 1.7 | 3.5 | 0.00 | 0.29 | 0.29 | 89 | 1015.9 |
| 20260503023341 | 62 | 69 | 2.6 | 2.6 | 0.00 | 0.29 | 0.29 | 89 | 1016.1 |
| 20260503022837 | 62 | 354 | 0.9 | 2.6 | 0.00 | 0.29 | 0.29 | 89 | 1015.9 |
| 20260503022332 | 62 | 35 | 0.0 | 2.6 | 0.00 | 0.29 | 0.29 | 89 | 1015.9 |
| 20260503021829 | 62 | 20 | 0.0 | 1.7 | 0.00 | 0.29 | 0.29 | 89 | 1016.1 |
| 20260503021325 | 62 | 32 | 1.7 | 3.5 | 0.00 | 0.29 | 0.29 | 89 | 1015.9 |
| 20260503020822 | 62 | 65 | 1.7 | 2.6 | 0.00 | 0.29 | 0.29 | 89 | 1016.0 |
| 20260503020321 | 62 | 60 | 0.0 | 3.5 | 0.00 | 0.29 | 0.29 | 89 | 1015.8 |
| 20260503015817 | 62 | 81 | 0.0 | 1.7 | 0.00 | 0.29 | 0.29 | 89 | 1015.8 |
| 20260503015314 | 62 | 38 | 2.6 | 3.5 | 0.00 | 0.29 | 0.29 | 89 | 1015.7 |
| 20260503014809 | 62 | 73 | 2.6 | 4.3 | 0.00 | 0.29 | 0.29 | 89 | 1015.7 |
| 20260503014307 | 62 | 357 | 1.7 | 6.1 | 0.00 | 0.29 | 0.29 | 89 | 1015.7 |
| 20260503013804 | 62 | 319 | 1.7 | 3.5 | 0.00 | 0.29 | 0.29 | 89 | 1015.4 |
| 20260503013302 | 62 | 53 | 1.7 | 2.6 | 0.00 | 0.29 | 0.29 | 89 | 1015.3 |
| 20260503012759 | 62 | 74 | 0.0 | 6.1 | 0.00 | 0.29 | 0.29 | 89 | 1015.2 |
| 20260503012256 | 62 | 79 | 1.7 | 1.7 | 0.00 | 0.29 | 0.29 | 89 | 1015.4 |
| 20260503011753 | 62 | 40 | 2.6 | 2.6 | 0.00 | 0.29 | 0.29 | 89 | 1015.3 |
| 20260503011250 | 62 | 32 | 4.3 | 4.3 | 0.00 | 0.29 | 0.29 | 89 | 1015.2 |
| 20260503010746 | 62 | 33 | 3.5 | 4.3 | 0.00 | 0.29 | 0.29 | 89 | 1015.1 |
| 20260503010243 | 62 | 327 | 1.7 | 3.5 | 0.00 | 0.29 | 0.29 | 89 | 1015.1 |
| 20260503005740 | 62 | 12 | 0.0 | 1.7 | 0.00 | 0.29 | 0.29 | 89 | 1015.0 |
| 20260503005237 | 62 | 274 | 0.0 | 5.2 | 0.00 | 0.29 | 0.29 | 89 | 1014.9 |
| 20260503004733 | 62 | 295 | 3.5 | 5.2 | 0.00 | 0.29 | 0.29 | 89 | 1014.7 |
| 20260503004232 | 62 | 26 | 0.0 | 4.3 | 0.00 | 0.29 | 0.29 | 90 | 1014.6 |
| 20260503003729 | 62 | 55 | 1.7 | 6.1 | 0.00 | 0.29 | 0.29 | 90 | 1014.4 |
| 20260503003226 | 62 | 356 | 1.7 | 6.1 | 0.00 | 0.29 | 0.29 | 90 | 1014.3 |
| 20260503002722 | 63 | 23 | 2.6 | 4.3 | 0.00 | 0.29 | 0.29 | 90 | 1014.0 |
| 20260503002219 | 63 | 18 | 0.0 | 3.5 | 0.00 | 0.29 | 0.29 | 90 | 1014.1 |
| 20260503001715 | 63 | 23 | 3.5 | 3.5 | 0.00 | 0.29 | 0.29 | 89 | 1014.0 |
| 20260503001212 | 63 | 290 | 2.6 | 3.5 | 0.00 | 0.29 | 0.29 | 89 | 1013.9 |
| 20260503000710 | 63 | 16 | 0.0 | 2.6 | 0.00 | 0.29 | 0.29 | 89 | 1013.9 |
| 20260503000207 | 63 | 23 | 1.7 | 4.3 | 0.00 | 0.29 | 0.29 | 89 | 1013.7 |
| 20260502235704 | 63 | 24 | 1.7 | 4.3 | 0.00 | 0.29 | 0.29 | 89 | 1013.7 |
| 20260502235202 | 63 | 48 | 1.7 | 4.3 | 0.00 | 0.29 | 0.29 | 89 | 1013.7 |
| 20260502234657 | 63 | 45 | 1.7 | 7.8 | 0.00 | 0.29 | 0.29 | 89 | 1013.5 |
| 20260502234155 | 63 | 35 | 2.6 | 4.3 | 0.00 | 0.29 | 0.29 | 89 | 1013.4 |
| 20260502233651 | 63 | 305 | 1.7 | 11.3 | 0.00 | 0.29 | 0.29 | 89 | 1013.4 |
| 20260502233148 | 63 | 358 | 2.6 | 6.1 | 0.00 | 0.29 | 0.29 | 89 | 1013.1 |
| 20260502232643 | 63 | 68 | 1.7 | 5.2 | 0.00 | 0.29 | 0.29 | 90 | 1013.0 |
| 20260502232141 | 63 | 5 | 0.0 | 5.2 | 0.00 | 0.29 | 0.29 | 90 | 1013.1 |
| 20260502231637 | 63 | 343 | 2.6 | 5.2 | 0.00 | 0.29 | 0.29 | 90 | 1013.1 |
| 20260502231135 | 64 | 9 | 1.7 | 4.3 | 0.00 | 0.29 | 0.29 | 90 | 1012.6 |
| 20260502230634 | 64 | 66 | 0.9 | 6.1 | 0.00 | 0.29 | 0.29 | 90 | 1012.8 |
| 20260502230132 | 64 | 315 | 2.6 | 7.0 | 0.00 | 0.29 | 0.29 | 90 | 1012.6 |
| 20260502225627 | 65 | 5 | 1.7 | 6.1 | 0.00 | 0.29 | 0.29 | 89 | 1012.7 |
| 20260502225125 | 65 | 348 | 0.9 | 5.2 | 0.00 | 0.29 | 0.29 | 89 | 1012.4 |
| 20260502224621 | 65 | 355 | 0.9 | 4.3 | 0.00 | 0.29 | 0.29 | 89 | 1012.2 |
| 20260502224117 | 65 | 40 | 1.7 | 4.3 | 0.00 | 0.29 | 0.29 | 89 | 1012.1 |
| 20260502223615 | 65 | 30 | 1.7 | 6.1 | 0.00 | 0.29 | 0.29 | 89 | 1012.1 |
| 20260502223114 | 65 | 318 | 2.6 | 7.0 | 0.00 | 0.29 | 0.29 | 88 | 1012.0 |
| 20260502222611 | 66 | 343 | 0.0 | 5.2 | 0.00 | 0.29 | 0.29 | 88 | 1011.8 |
| 20260502222107 | 66 | 304 | 5.2 | 6.1 | 0.00 | 0.29 | 0.29 | 87 | 1011.9 |
| 20260502221602 | 67 | 3 | 1.7 | 10.4 | 0.00 | 0.29 | 0.29 | 86 | 1011.6 |
| 20260502221100 | 68 | 296 | 0.0 | 9.6 | 0.00 | 0.29 | 0.29 | 84 | 1011.5 |